{"data":{"norad_id":67565,"intl_designator":"2026-016E","name":"STARLINK-35725","alt_names":[],"object_type":"PAYLOAD","status":"ACTIVE","operator":null,"country":"US","launch_date":"2026-01-25","launch_site_code":"AFWTR","launch_vehicle":null,"mission":null,"orbit_class":"UNKNOWN","rcs_meters":null,"size_class":null,"mass_kg":null,"dimensions":null,"purposes":["comms"],"wikipedia_slug":null,"has_3d_model":false,"image_url":null,"decayed_at":null,"tle_current":{"epoch":"2026-09-19T10:21:58.148064Z","epoch_age_seconds":164551,"freshness":"FRESH","line1":"1 67565U 26016E   26262.43192301  .00019793  00000+0  61336-3 0  9995","line2":"2 67565  97.2867 321.0630 0000928 107.4660 252.6684 15.33469233 36559","mean_motion":15.33469233,"eccentricity":9.28e-5,"inclination_deg":97.2867,"raan_deg":321.063,"arg_perigee_deg":107.466,"mean_anomaly_deg":252.6684,"bstar":0.00061336,"rev_number":3655,"period_min":93.904720682453,"perigee_km":464.83598823962,"apogee_km":466.10616189835,"semimajor_km":6843.608075069,"source":"CELESTRAK","updated_at":"2026-09-20T09:00:43.574310Z"}}}